THOR ABLESTAR DEB, 2701

Orbit data source: Space-Track

THOR ABLESTAR DEB, 2701 is space debris in LEO originally from a launch on Thu, 24 Jun 1965 UTC launched from the Air Force Western Test Range (AFWTR). Debris objects in space refer to the collection of defunct objects orbiting the Earth. Examples of debris include non-operational satellites, rocket bodies, and fragments generated from explosions, collisions, or faulty payload assembly.

Loading next visibility...
Identifier
2701, 1965-048E
Orbit
LEO
Country
Flag of USUS
Related business
Manufacturer
Unknown
Mission
Spacecraft
Bus & Motor
Unknown
Mass
Unknown
Launch date (UTC)
1965-06-24 (60 years ago)
Launch vehicle
Unknown
Launch site
Air Force Western Test Range (AFWTR)
Object type
Payload
Rocket body
Debris
Shape & HBR
Unknown shape, 0.1 m
Radar Cross Section
Small (<0.1 m²)

Expand to show TLE details & history
Last TLE update: 16 hours ago

TLE from 16 hours ago
0 THOR ABLESTAR DEB
1 02701U 65048E   25346.63103193  .00000520  00000-0  63234-3 0  9997
2 02701  89.8801 289.8066 0065215  77.6074 100.7026 13.63852925995907
Epoch: 2025-12-12T15:08Z
TLE epoch observation values (Epoch: 2025-12-12T15:08:41.158Z)
Latitude
0.84613°
Longitude
161.06346°
Altitude
1,033.858 km
Speed
7.33 km/s
True Right ascension
07h 19m 13s
True Declination
0° 50' 29"
Sunlit
Object was in full shadow at epoch
Visualization orbit readout
Latitude
Unknown
Longitude
Unknown
Altitude
Unknown
Speed
Unknown
Apparent Right ascension
Unknown
Apparent Declination
Unknown
Sunlit
N/A
Visualization observer readout
Local Sidereal Time
05:24:08
Azimuth
Unknown
Elevation
Unknown
Doppler factor
Unknown
Orbital elements
Apogee altitude
1,066.991 km
Perigee altitude
970.513 km
Semi-major axis
7,396.889 km
Eccentricity
0.00652
Inclination
89.8801°
RAAN
289.8066°
Arg. of periapsis
77.6074°
True anomaly
101.43578°
Mean anomaly
100.7026°
Eccentric anomaly
101.0693°
Mean motion
3.41169 °/min
Orbital period
105.52 mins
BSTAR
0.00063234
Loading maneuver chart data...
Computing Atmospheric mass density...

Documentation

Showing up to 5 results
|